TimeMST,TemperatureF,Dew PointF,Humidity,Sea Level PressureIn,VisibilityMPH,Wind Direction,Wind SpeedMPH,Gust SpeedMPH,PrecipitationIn,Events,Conditions,WindDirDegrees,DateUTC
12:15 AM,17.6,10.4,73,30.31,10.0,South,4.6,-,N/A,,Clear,180,2013-01-17 07:15:00
12:35 AM,21.2,12.2,68,30.31,10.0,Calm,Calm,-,N/A,,Clear,0,2013-01-17 07:35:00
1:15 AM,17.6,10.4,73,30.30,10.0,North,5.8,-,N/A,,Clear,10,2013-01-17 08:15:00
1:35 AM,17.6,12.2,79,30.31,10.0,Calm,Calm,-,N/A,,Clear,0,2013-01-17 08:35:00
1:55 AM,15.8,8.6,73,30.31,10.0,Calm,Calm,-,N/A,,Clear,0,2013-01-17 08:55:00
2:35 AM,15.8,8.6,73,30.33,10.0,SSW,4.6,-,N/A,,Clear,210,2013-01-17 09:35:00
2:55 AM,15.8,6.8,68,30.34,10.0,Calm,Calm,-,N/A,,Clear,0,2013-01-17 09:55:00
3:15 AM,19.4,12.2,74,30.34,10.0,WNW,3.5,-,N/A,,Clear,300,2013-01-17 10:15:00
3:35 AM,15.8,8.6,73,30.34,10.0,SSE,5.8,-,N/A,,Clear,160,2013-01-17 10:35:00
3:55 AM,19.4,10.4,68,30.34,10.0,South,3.5,-,N/A,,Clear,190,2013-01-17 10:55:00
4:15 AM,19.4,12.2,74,30.34,10.0,SSE,4.6,-,N/A,,Clear,150,2013-01-17 11:15:00
4:35 AM,19.4,10.4,68,30.33,10.0,SSW,5.8,-,N/A,,Clear,200,2013-01-17 11:35:00
4:55 AM,17.6,8.6,68,30.33,10.0,NE,3.5,-,N/A,,Clear,50,2013-01-17 11:55:00
5:15 AM,19.4,10.4,68,30.32,10.0,WSW,4.6,-,N/A,,Clear,250,2013-01-17 12:15:00
5:35 AM,19.4,5.0,54,30.33,10.0,NE,6.9,-,N/A,,Clear,40,2013-01-17 12:35:00
5:55 AM,19.4,10.4,68,30.32,10.0,South,3.5,-,N/A,,Clear,190,2013-01-17 12:55:00
6:15 AM,17.6,8.6,68,30.32,10.0,Calm,Calm,-,N/A,,Clear,0,2013-01-17 13:15:00
6:35 AM,19.4,10.4,68,30.32,10.0,Calm,Calm,-,N/A,,Clear,0,2013-01-17 13:35:00
6:55 AM,15.8,6.8,68,30.31,10.0,North,5.8,-,N/A,,Clear,360,2013-01-17 13:55:00
7:15 AM,15.8,12.2,86,30.31,10.0,Calm,Calm,-,N/A,,Clear,0,2013-01-17 14:15:00
7:36 AM,21.2,10.4,63,30.31,10.0,NE,3.5,-,N/A,,Clear,40,2013-01-17 14:36:00
8:15 AM,19.4,6.8,58,30.31,10.0,SSE,8.1,-,N/A,,Clear,160,2013-01-17 15:15:00
8:35 AM,19.4,6.8,58,30.32,10.0,Calm,Calm,-,N/A,,Clear,0,2013-01-17 15:35:00
9:15 AM,21.2,6.8,54,30.31,10.0,ENE,3.5,-,N/A,,Clear,60,2013-01-17 16:15:00
9:35 AM,15.8,3.2,58,30.32,10.0,ENE,5.8,-,N/A,,Clear,60,2013-01-17 16:35:00
9:55 AM,15.8,8.6,73,30.32,10.0,NE,5.8,-,N/A,,Clear,40,2013-01-17 16:55:00
10:35 AM,15.8,10.4,79,30.31,10.0,NNE,6.9,-,N/A,,Clear,30,2013-01-17 17:35:00
10:55 AM,15.8,12.2,86,30.31,10.0,NNE,6.9,-,N/A,,Clear,30,2013-01-17 17:55:00
11:15 AM,15.8,12.2,86,30.30,10.0,NNE,6.9,-,N/A,,Clear,20,2013-01-17 18:15:00
11:35 AM,17.6,14.0,86,30.29,10.0,NNE,3.5,-,N/A,,Clear,30,2013-01-17 18:35:00
11:55 AM,19.4,12.2,74,30.27,10.0,NNE,4.6,-,N/A,,Clear,20,2013-01-17 18:55:00
12:15 PM,19.4,14.0,80,30.26,10.0,NNE,5.8,-,N/A,,Clear,20,2013-01-17 19:15:00
12:35 PM,19.4,14.0,80,30.25,10.0,NNE,6.9,-,N/A,,Clear,30,2013-01-17 19:35:00
12:56 PM,21.2,14.0,74,30.24,10.0,Calm,Calm,-,N/A,,Clear,0,2013-01-17 19:56:00
1:15 PM,21.2,15.8,80,30.22,10.0,NNE,5.8,-,N/A,,Clear,30,2013-01-17 20:15:00
1:35 PM,21.2,15.8,80,30.22,10.0,NNE,8.1,-,N/A,,Clear,20,2013-01-17 20:35:00
1:55 PM,21.2,15.8,80,30.21,10.0,NNE,5.8,-,N/A,,Clear,20,2013-01-17 20:55:00
2:15 PM,21.2,17.6,86,30.21,10.0,North,5.8,-,N/A,,Clear,360,2013-01-17 21:15:00
2:35 PM,23.0,15.8,74,30.21,10.0,NNE,3.5,-,N/A,,Clear,20,2013-01-17 21:35:00
2:55 PM,21.2,17.6,86,30.20,10.0,Calm,Calm,-,N/A,,Clear,0,2013-01-17 21:55:00
3:15 PM,24.8,17.6,74,30.20,10.0,NE,4.6,-,N/A,,Clear,40,2013-01-17 22:15:00
3:35 PM,24.8,17.6,74,30.19,10.0,North,4.6,-,N/A,,Clear,10,2013-01-17 22:35:00
3:55 PM,24.8,17.6,74,30.18,10.0,SW,9.2,-,N/A,,Clear,230,2013-01-17 22:55:00
4:15 PM,21.2,14.0,74,30.19,10.0,NE,6.9,-,N/A,,Clear,40,2013-01-17 23:15:00
4:35 PM,19.4,15.8,86,30.19,10.0,NNE,6.9,-,N/A,,Clear,20,2013-01-17 23:35:00
4:55 PM,19.4,14.0,80,30.19,10.0,North,5.8,-,N/A,,Clear,360,2013-01-17 23:55:00
5:15 PM,17.6,14.0,86,30.19,10.0,Calm,Calm,-,N/A,,Clear,0,2013-01-18 00:15:00
5:35 PM,26.6,19.4,74,30.18,10.0,WNW,3.5,-,N/A,,Clear,300,2013-01-18 00:35:00
5:55 PM,32.0,17.6,55,30.18,10.0,WNW,9.2,-,N/A,,Clear,290,2013-01-18 00:55:00
6:15 PM,35.6,12.2,38,30.18,10.0,WNW,9.2,19.6,N/A,,Clear,300,2013-01-18 01:15:00
6:35 PM,30.2,10.4,44,30.18,10.0,West,4.6,-,N/A,,Clear,280,2013-01-18 01:35:00
6:55 PM,37.4,12.2,36,30.17,10.0,WNW,6.9,-,N/A,,Clear,290,2013-01-18 01:55:00
7:15 PM,32.0,14.0,48,30.17,10.0,NE,4.6,-,N/A,,Clear,50,2013-01-18 02:15:00
8:15 PM,42.8,12.2,29,30.15,10.0,WSW,17.3,28.8,N/A,,Clear,250,2013-01-18 03:15:00
8:35 PM,42.8,10.4,27,30.15,10.0,WSW,15.0,28.8,N/A,,Clear,250,2013-01-18 03:35:00
8:55 PM,42.8,10.4,27,30.15,10.0,WSW,16.1,26.5,N/A,,Clear,250,2013-01-18 03:55:00
9:15 PM,42.8,10.4,27,30.16,10.0,West,13.8,25.3,N/A,,Clear,270,2013-01-18 04:15:00
9:35 PM,42.8,10.4,27,30.15,10.0,West,13.8,23.0,N/A,,Clear,260,2013-01-18 04:35:00
9:55 PM,42.8,10.4,27,30.15,10.0,West,13.8,23.0,N/A,,Clear,260,2013-01-18 04:55:00
10:15 PM,42.8,10.4,27,30.13,10.0,West,13.8,19.6,N/A,,Clear,260,2013-01-18 05:15:00
10:35 PM,42.8,10.4,27,30.12,10.0,WSW,15.0,19.6,N/A,,Clear,250,2013-01-18 05:35:00
10:55 PM,42.8,10.4,27,30.11,10.0,West,16.1,25.3,N/A,,Clear,280,2013-01-18 05:55:00
11:15 PM,42.8,12.2,29,30.11,10.0,West,18.4,29.9,N/A,,Clear,260,2013-01-18 06:15:00
11:35 PM,42.8,10.4,27,30.12,10.0,WNW,9.2,21.9,N/A,,Clear,300,2013-01-18 06:35:00